| time (UTC) | temp F | wind direction | speed MPH | gust MPH | rain 1hr in | rain 24hr in | rain mn in | humidity % | barometer mb |
| 20260507193039 | 57 | 327 | 1.0 | 3.0 | 0.01 | 0.11 | 0.07 | 93 | 1010.4 |
| 20260507191538 | 57 | 352 | 1.0 | 3.0 | 0.01 | 0.11 | 0.07 | 93 | 1010.6 |
| 20260507190039 | 57 | 352 | 0.0 | 2.0 | 0.01 | 0.11 | 0.07 | 93 | 1010.7 |
| 20260507184536 | 57 | 352 | 0.0 | 2.0 | 0.00 | 0.10 | 0.06 | 93 | 1010.8 |
| 20260507183036 | 56 | 353 | 0.0 | 3.0 | 0.00 | 0.10 | 0.06 | 94 | 1010.7 |
| 20260507181535 | 56 | 329 | 0.0 | 2.0 | 0.00 | 0.10 | 0.06 | 94 | 1010.7 |
| 20260507180034 | 56 | 212 | 0.0 | 4.0 | 0.00 | 0.10 | 0.06 | 94 | 1010.6 |
| 20260507174546 | 56 | 309 | 0.0 | 2.0 | 0.00 | 0.10 | 0.06 | 94 | 1010.7 |
| 20260507173033 | 56 | 339 | 1.0 | 3.0 | 0.00 | 0.10 | 0.06 | 94 | 1010.7 |
| 20260507171541 | 56 | 120 | 0.0 | 4.0 | 0.00 | 0.10 | 0.06 | 94 | 1010.6 |
| 20260507170030 | 56 | 15 | 0.0 | 3.0 | 0.00 | 0.10 | 0.06 | 94 | 1010.3 |
| 20260507164528 | 56 | 51 | 1.0 | 5.0 | 0.00 | 0.10 | 0.06 | 94 | 1010.8 |
| 20260507163027 | 56 | 310 | 0.0 | 4.0 | 0.00 | 0.10 | 0.06 | 94 | 1011.0 |
| 20260507161527 | 56 | 98 | 1.0 | 2.0 | 0.00 | 0.10 | 0.06 | 94 | 1010.8 |
| 20260507160030 | 57 | 190 | 0.0 | 4.0 | 0.00 | 0.11 | 0.06 | 95 | 1010.8 |
| 20260507154522 | 57 | 337 | 1.0 | 4.0 | 0.00 | 0.11 | 0.06 | 94 | 1011.0 |
| 20260507153025 | 57 | 332 | 0.0 | 3.0 | 0.00 | 0.11 | 0.06 | 94 | 1010.8 |
| 20260507151516 | 59 | 333 | 1.0 | 3.0 | 0.00 | 0.11 | 0.06 | 95 | 1011.0 |
| 20260507150012 | 60 | 298 | 1.0 | 4.0 | 0.00 | 0.11 | 0.06 | 95 | 1010.8 |
| 20260507144508 | 62 | 356 | 2.0 | 4.0 | 0.00 | 0.11 | 0.06 | 96 | 1010.1 |
| 20260507143007 | 62 | 158 | 0.0 | 0.0 | 0.00 | 0.11 | 0.06 | 96 | 1009.3 |
| 20260507141506 | 63 | 158 | 0.0 | 0.0 | 0.01 | 0.11 | 0.06 | 96 | 1009.7 |
| 20260507140009 | 63 | 158 | 0.0 | 0.0 | 0.01 | 0.11 | 0.06 | 96 | 1010.1 |
| 20260507134505 | 63 | 158 | 0.0 | 0.0 | 0.01 | 0.11 | 0.06 | 96 | 1009.6 |
| 20260507133003 | 64 | 158 | 0.0 | 2.0 | 0.01 | 0.11 | 0.06 | 96 | 1009.7 |
| 20260507131502 | 64 | 160 | 0.0 | 2.0 | 0.00 | 0.10 | 0.05 | 96 | 1010.1 |
| 20260507130001 | 64 | 160 | 0.0 | 1.0 | 0.01 | 0.10 | 0.05 | 96 | 1010.6 |
| 20260507124604 | 64 | 160 | 0.0 | 1.0 | 0.01 | 0.10 | 0.05 | 96 | 1010.3 |
| 20260507123105 | 64 | 160 | 0.0 | 0.0 | 0.01 | 0.10 | 0.05 | 96 | 1009.9 |
| 20260507121559 | 64 | 160 | 0.0 | 2.0 | 0.01 | 0.10 | 0.05 | 96 | 1010.2 |
| 20260507120056 | 63 | 160 | 0.0 | 0.0 | 0.00 | 0.09 | 0.04 | 96 | 1010.2 |
| 20260507114554 | 63 | 160 | 0.0 | 0.0 | 0.00 | 0.09 | 0.04 | 96 | 1010.0 |
| 20260507113126 | 63 | 160 | 0.0 | 1.0 | 0.00 | 0.09 | 0.04 | 96 | 1010.0 |
| 20260507111554 | 63 | 160 | 0.0 | 2.0 | 0.00 | 0.09 | 0.04 | 95 | 1009.7 |
| 20260507110052 | 63 | 160 | 0.0 | 1.0 | 0.00 | 0.09 | 0.04 | 95 | 1010.2 |
| 20260507104559 | 63 | 160 | 0.0 | 0.0 | 0.01 | 0.09 | 0.04 | 95 | 1009.8 |
| 20260507103049 | 63 | 160 | 0.0 | 1.0 | 0.01 | 0.09 | 0.04 | 95 | 1009.7 |
| 20260507101553 | 63 | 160 | 1.0 | 3.0 | 0.01 | 0.09 | 0.04 | 95 | 1009.3 |
| 20260507100055 | 63 | 148 | 0.0 | 3.0 | 0.01 | 0.09 | 0.04 | 95 | 1008.9 |
| 20260507094546 | 63 | 203 | 0.0 | 4.0 | 0.00 | 0.08 | 0.03 | 95 | 1009.8 |
| 20260507093045 | 63 | 184 | 0.0 | 1.0 | 0.00 | 0.08 | 0.03 | 95 | 1009.9 |
| 20260507091548 | 63 | 185 | 0.0 | 0.0 | 0.00 | 0.08 | 0.03 | 95 | 1010.1 |
| 20260507090043 | 63 | 185 | 0.0 | 0.0 | 0.00 | 0.08 | 0.03 | 95 | 1009.6 |
| 20260507084553 | 64 | 184 | 0.0 | 0.0 | 0.00 | 0.08 | 0.03 | 95 | 1009.5 |
| 20260507083041 | 64 | 185 | 0.0 | 2.0 | 0.00 | 0.08 | 0.03 | 95 | 1009.8 |
| 20260507081541 | 64 | 185 | 0.0 | 1.0 | 0.00 | 0.08 | 0.03 | 95 | 1009.7 |
| 20260507080039 | 64 | 184 | 0.0 | 1.0 | 0.00 | 0.08 | 0.03 | 94 | 1009.6 |
| 20260507074542 | 64 | 181 | 0.0 | 4.0 | 0.01 | 0.08 | 0.03 | 94 | 1009.7 |
| 20260507073038 | 64 | 114 | 0.0 | 2.0 | 0.01 | 0.08 | 0.03 | 94 | 1009.4 |
| 20260507071542 | 64 | 109 | 1.0 | 4.0 | 0.01 | 0.08 | 0.03 | 94 | 1009.0 |
| 20260507070039 | 64 | 177 | 0.0 | 5.0 | 0.01 | 0.08 | 0.03 | 94 | 1009.5 |
| 20260507064543 | 65 | 194 | 1.0 | 4.0 | 0.00 | 0.07 | 0.02 | 94 | 1009.7 |
| 20260507063033 | 65 | 233 | 0.0 | 2.0 | 0.00 | 0.07 | 0.02 | 94 | 1009.9 |
| 20260507061537 | 65 | 191 | 1.0 | 4.0 | 0.00 | 0.07 | 0.02 | 94 | 1010.7 |
| 20260507060038 | 65 | 187 | 0.0 | 2.0 | 0.00 | 0.07 | 0.02 | 93 | 1010.7 |
| 20260507054539 | 65 | 187 | 0.0 | 2.0 | 0.00 | 0.07 | 0.02 | 93 | 1010.9 |
| 20260507053031 | 65 | 186 | 0.0 | 0.0 | 0.00 | 0.07 | 0.02 | 93 | 1011.3 |
| 20260507051529 | 65 | 186 | 0.0 | 0.0 | 0.00 | 0.07 | 0.02 | 93 | 1011.8 |
| 20260507050049 | 65 | 186 | 0.0 | 0.0 | 0.02 | 0.07 | 0.02 | 93 | 1011.3 |
| 20260507044525 | 66 | 186 | 0.0 | 3.0 | 0.04 | 0.07 | 0.02 | 92 | 1011.7 |
| 20260507043024 | 66 | 198 | 1.0 | 3.0 | 0.05 | 0.07 | 0.02 | 92 | 1011.3 |
| 20260507041522 | 66 | 197 | 1.0 | 5.0 | 0.06 | 0.07 | 0.02 | 91 | 1011.1 |
| 20260507040022 | 66 | 205 | 0.0 | 3.0 | 0.04 | 0.05 | 0.05 | 91 | 1011.5 |
| 20260507034519 | 66 | 206 | 0.0 | 3.0 | 0.02 | 0.03 | 0.03 | 90 | 1012.2 |
| 20260507033021 | 66 | 190 | 0.0 | 2.0 | 0.01 | 0.02 | 0.02 | 89 | 1012.4 |
| 20260507031515 | 67 | 190 | 0.0 | 0.0 | 0.00 | 0.01 | 0.01 | 88 | 1012.2 |
| 20260507030014 | 67 | 190 | 0.0 | 1.0 | 0.00 | 0.01 | 0.01 | 87 | 1011.5 |
| 20260507024517 | 67 | 190 | 0.0 | 1.0 | 0.00 | 0.01 | 0.01 | 86 | 1011.8 |
| 20260507023012 | 68 | 190 | 0.0 | 1.0 | 0.00 | 0.01 | 0.01 | 85 | 1011.8 |
| 20260507021518 | 68 | 192 | 0.0 | 3.0 | 0.00 | 0.01 | 0.01 | 85 | 1011.3 |
| 20260507020020 | 68 | 192 | 0.0 | 2.0 | 0.00 | 0.01 | 0.01 | 84 | 1011.0 |
| 20260507014514 | 68 | 192 | 0.0 | 5.0 | 0.00 | 0.01 | 0.01 | 83 | 1010.7 |
| 20260507013011 | 69 | 244 | 0.0 | 5.0 | 0.00 | 0.01 | 0.01 | 83 | 1010.8 |
| 20260507011515 | 69 | 229 | 2.0 | 4.0 | 0.00 | 0.01 | 0.01 | 82 | 1010.8 |
| 20260507010023 | 69 | 168 | 1.0 | 7.0 | 0.00 | 0.01 | 0.01 | 82 | 1011.2 |
| 20260507004508 | 69 | 212 | 2.0 | 5.0 | 0.00 | 0.01 | 0.01 | 82 | 1011.0 |
| 20260507003008 | 69 | 183 | 1.0 | 5.0 | 0.00 | 0.01 | 0.01 | 81 | 1010.9 |
| 20260507001508 | 70 | 191 | 0.0 | 3.0 | 0.00 | 0.01 | 0.01 | 81 | 1010.7 |
| 20260507000007 | 70 | 206 | 1.0 | 4.0 | 0.00 | 0.01 | 0.01 | 79 | 1010.4 |
| 20260506234506 | 71 | 229 | 0.0 | 3.0 | 0.00 | 0.01 | 0.01 | 79 | 1010.7 |
| 20260506233007 | 71 | 177 | 2.0 | 5.0 | 0.00 | 0.01 | 0.01 | 78 | 1010.7 |
| 20260506231506 | 72 | 226 | 0.0 | 6.0 | 0.00 | 0.01 | 0.01 | 77 | 1011.0 |
| 20260506230005 | 72 | 204 | 1.0 | 7.0 | 0.00 | 0.01 | 0.01 | 77 | 1011.2 |
| 20260506224505 | 72 | 136 | 3.0 | 11.0 | 0.00 | 0.01 | 0.01 | 76 | 1011.1 |
| 20260506223003 | 73 | 269 | 3.0 | 9.0 | 0.00 | 0.01 | 0.01 | 75 | 1010.9 |
| 20260506221504 | 73 | 192 | 2.0 | 10.0 | 0.00 | 0.01 | 0.01 | 75 | 1010.7 |
| 20260506220003 | 73 | 177 | 4.0 | 10.0 | 0.00 | 0.01 | 0.01 | 75 | 1010.5 |
| 20260506214502 | 73 | 205 | 5.0 | 12.0 | 0.00 | 0.01 | 0.01 | 74 | 1010.3 |
| 20260506213001 | 74 | 188 | 4.0 | 10.0 | 0.00 | 0.01 | 0.01 | 73 | 1010.4 |
| 20260506211600 | 74 | 288 | 2.0 | 9.0 | 0.00 | 0.01 | 0.01 | 75 | 1010.6 |
| 20260506210059 | 73 | 162 | 2.0 | 8.0 | 0.00 | 0.01 | 0.01 | 76 | 1010.5 |
| 20260506204602 | 73 | 261 | 7.0 | 14.0 | 0.00 | 0.01 | 0.01 | 75 | 1010.5 |
| 20260506203056 | 73 | 192 | 3.0 | 12.0 | 0.00 | 0.01 | 0.01 | 76 | 1010.8 |
| 20260506201557 | 72 | 227 | 4.0 | 14.0 | 0.00 | 0.01 | 0.01 | 76 | 1010.6 |
| 20260506200107 | 71 | 10 | 3.0 | 13.0 | 0.00 | 0.01 | 0.01 | 78 | 1010.5 |
| 20260506194553 | 70 | 10 | 3.0 | 13.0 | 0.00 | 0.01 | 0.01 | 79 | 1010.7 |